Location: Contre
(49.7477°N, 2.0963°E)
Time: 01:17:47
(UTC+00:00)

Envisat - Pass Details

Date: 01 March 2024
Orbit: 762 x 764 km, 98.3° (Epoch: 12 April)

Event Time Altitude Azimuth Distance (km) Brightness Sun altitude
Rises 02:01:26 0° 27° (NNE) 3,241 7.1 -41.1°
Reaches altitude 10° 02:04:35 10° 48° (NE) 2,309 6.1 -40.8°
Enters shadow 02:06:24 15° 68° (ENE) 1,959 5.6 -40.6°
